SL-14 R/B, 16144

Orbit data source: Space-Track

SL-14 R/B, 16144 is space debris in LEO originally from a launch on Wed, 09 Oct 1985 UTC launched from the Plesetsk Missile And Space Complex (PKMTR). Debris objects in space refer to the collection of defunct objects orbiting the Earth. Examples of debris include non-operational satellites, rocket bodies, and fragments generated from explosions, collisions, or faulty payload assembly.

Loading next visibility...
SL-14 R/B details
Identifier
16144, 1985-094G
Orbit
LEO
Last TLE update9 hours ago
Origin
Flag of CISGUKOS (CIS)
ManufacturerYuzhnoe
MissionSpacecraft
Bus & MotorS5M, Unknown motor
Mass1,600 kg wet, 1,600 kg dry
Launch date (UTC)
1985-10-09 (39 years ago)
Launch vehicleUnknown
Launch site
Plesetsk Missile And Space Complex (PKMTR)
Object type
Payload
Rocket body
Debris
Shape & HBRCyl, 2.7 m
Radar Cross Section7.351 m², Large (>1 m²)

Expand to show TLE details & history

TLE from 9 hours ago
0 SL-14 R/B
1 16144U 85094G   24361.52486226  .00000025  00000-0  92934-4 0  9991
2 16144  82.6087  30.5540 0035627 216.9548 258.1084 12.54887255796315
Epoch: 2024-12-26T12:35Z
Definitive object data (Epoch: 2024-12-26T12:35:48.099Z)
Latitude64.40025°
Longitude-89.52951°
Altitude1,461.026 km
Speed7.135 km/s
True Right ascension12h 59m 41s
True Declination64° 16' 41"
Sunlit
Object was in daylight at TLE epoch
Visualization TLE readout
Latitude32.7408°
Longitude110.62332°
Altitude1,476.048 km
Speed7.115 km/s
Apparent Right ascension05h 02m 08s
Apparent Declination1° 13' 06"
Sunlit
Object is in full shadow
Visualization observer readout
Local Sidereal Time21:06:42
Azimuth69.582° E
Elevation-20.884°
Doppler factor1
Orbital elements
Apogee altitude1,469.308 km
Perigee altitude1,413.59 km
Semi-major axis7,819.586 km
Eccentricity0.0035627
Inclination82.6087°
RAAN30.554°
Arg. of periapsis216.9548°
True anomaly257.70928°
Mean anomaly258.1084°
Eccentric anomaly257.9088°
Mean motion3.13883 °/min
BSTAR0.000092934
Orbital period114.69 mins
Loading maneuver chart data...
Loading historical data...
Loading historical data...
Loading historical data...
Loading historical data...
Loading historical data...
Loading historical data...
Loading historical data...

SL-14 R/B Visibility forecast

Observer location: undefined°, undefined

Span
Click to sort rows by Start time (UTC) header in descending order
Start Az.
Max El. time (UTC)
Max El. Az.
Max El.
End time (UTC)
End Az.
12 mins2024-12-27 01:29:39.743Z131.611° SE2024-12-27 01:35:39.743Z82.697° E24.564°2024-12-27 01:41:39.743Z33.353° NE
15 mins2024-12-27 03:23:39.743Z203.413° SW2024-12-27 03:30:39.743Z279.41° WNW41.555°2024-12-27 03:38:39.743Z0.537° NNE
15 mins2024-12-27 13:28:39.743Z1.624° NNE2024-12-27 13:35:39.743Z69.599° E40.421°2024-12-27 13:43:39.743Z155.754° SSE
12 mins2024-12-27 15:25:39.743Z324.55° NNW2024-12-27 15:30:39.743Z281.579° WNW25.259°2024-12-27 15:37:39.743Z223.582° SW
|